DW8694 Weather Reports


time (UTC)temp
F
wind
direction
speed
knots
gust
knots
rain 1hr
in
rain 24hr
in
rain mn
in
humidity
%
barometer
mb
20260507153050 61 265 0.9 0.0 0.00 0.00 0.00 37 1008.1
20260507151546 61 242 0.9 0.0 0.00 0.00 0.00 41 1008.0
20260507150043 59 229 0.9 0.0 0.00 0.00 0.00 43 1008.0
20260507144538 58 227 0.9 0.0 0.00 0.00 0.00 47 1008.1
20260507143054 56 252 0.9 0.0 0.00 0.00 0.00 52 1008.1
20260507141547 54 224 0.9 0.0 0.00 0.00 0.00 55 1008.1
20260507140028 54 250 0.9 0.0 0.00 0.00 0.00 57 1008.0
20260507134528 53 256 0.0 0.0 0.00 0.00 0.00 58 1007.9
20260507133027 52 240 0.9 0.0 0.00 0.00 0.00 60 1007.7
20260507131526 51 247 0.9 0.0 0.00 0.00 0.00 61 1007.7
20260507130036 50 229 0.9 0.0 0.00 0.00 0.00 62 1007.6
20260507124520 50 248 0.9 0.0 0.00 0.00 0.00 62 1007.5
20260507123018 50 240 0.9 0.0 0.00 0.00 0.00 62 1007.2
20260507121516 50 229 0.0 0.0 0.00 0.00 0.00 62 1007.2
20260507120011 51 245 0.0 0.0 0.00 0.00 0.00 61 1006.9
20260507114509 52 247 0.0 0.0 0.00 0.00 0.00 60 1006.8
20260507113008 53 245 0.0 0.0 0.00 0.00 0.00 59 1006.8
20260507111507 54 248 0.9 0.0 0.00 0.00 0.00 58 1006.7
20260507110007 54 234 0.9 0.0 0.00 0.00 0.00 57 1006.5
20260507104506 54 243 0.9 0.0 0.00 0.00 0.00 58 1006.3
20260507103005 53 202 0.0 0.0 0.00 0.00 0.00 61 1006.4
20260507101507 53 196 0.0 0.0 0.00 0.00 0.00 63 1006.4
20260507100007 53 196 0.0 0.0 0.00 0.00 0.00 62 1006.4
20260507094504 53 196 0.0 0.0 0.00 0.00 0.00 61 1006.3
20260507093004 53 196 0.0 0.0 0.00 0.00 0.00 62 1006.3
20260507091506 52 196 0.0 0.0 0.00 0.00 0.00 63 1006.3
20260507090002 52 196 0.0 0.0 0.00 0.00 0.00 62 1006.2
20260507084600 53 196 0.0 0.0 0.00 0.00 0.00 61 1006.1
20260507083058 54 196 0.0 0.0 0.00 0.00 0.00 60 1006.1
20260507081556 54 196 0.0 0.0 0.00 0.00 0.00 59 1006.2
20260507080107 55 196 0.0 0.0 0.00 0.00 0.00 58 1006.2
20260507074556 55 196 0.0 0.0 0.00 0.00 0.00 58 1006.4
20260507073053 55 196 0.0 0.0 0.00 0.00 0.00 58 1006.5
20260507071551 55 196 0.0 0.0 0.00 0.00 0.00 56 1006.2
20260507070101 54 196 0.0 0.0 0.00 0.00 0.00 54 1006.3
20260507064620 54 196 0.0 0.0 0.00 0.00 0.00 51 1006.5
20260507063052 54 196 0.0 0.0 0.00 0.00 0.00 52 1006.5
20260507061546 55 196 0.0 0.0 0.00 0.00 0.00 50 1006.5
20260507060108 55 196 0.0 0.0 0.00 0.00 0.00 50 1006.7
20260507054546 56 196 0.0 0.0 0.00 0.00 0.00 46 1007.1
20260507053040 56 196 0.0 0.0 0.00 0.00 0.00 46 1007.0
20260507051558 57 196 0.0 0.0 0.00 0.00 0.00 44 1007.0
20260507050045 58 196 0.0 0.0 0.00 0.00 0.00 45 1007.2
20260507044538 58 196 0.0 0.0 0.00 0.00 0.00 47 1007.0
20260507043041 59 193 0.0 0.0 0.00 0.00 0.00 48 1006.9
20260507041537 60 193 0.0 0.0 0.00 0.00 0.00 48 1006.8
20260507040036 60 206 0.0 0.0 0.00 0.00 0.00 47 1006.6
20260507034536 61 238 0.0 0.0 0.00 0.00 0.00 46 1006.4
20260507033036 62 238 0.0 0.0 0.00 0.00 0.00 44 1006.1
20260507031536 63 238 0.0 0.0 0.00 0.00 0.00 42 1005.8
20260507030036 63 241 1.7 0.0 0.00 0.00 0.00 39 1006.3
20260507024533 63 182 0.0 0.0 0.00 0.00 0.00 33 1006.3
20260507023031 64 174 0.0 0.0 0.00 0.00 0.00 30 1006.3
20260507021533 64 174 0.0 0.0 0.00 0.00 0.00 30 1006.1
20260507020034 65 174 0.0 0.0 0.00 0.00 0.00 29 1006.0
20260507014530 65 174 0.0 0.0 0.00 0.00 0.00 28 1005.9
20260507013029 65 174 0.0 0.0 0.00 0.00 0.00 27 1005.8
20260507011534 65 174 0.0 0.0 0.00 0.00 0.00 27 1005.6
20260507010043 65 98 0.9 0.0 0.00 0.00 0.00 27 1005.5
20260507004532 66 143 0.0 0.0 0.00 0.00 0.00 26 1005.6
20260507003028 66 105 0.0 0.0 0.00 0.00 0.00 27 1005.5
20260507001527 65 51 0.9 0.0 0.00 0.00 0.00 27 1005.5
20260507000026 65 31 0.9 0.0 0.00 0.00 0.00 26 1005.5
20260506234528 66 90 0.9 0.0 0.00 0.00 0.00 26 1005.4
20260506233025 67 113 0.0 0.0 0.00 0.00 0.00 26 1005.6
20260506231524 67 139 0.9 0.0 0.00 0.00 0.00 25 1005.5
20260506230026 68 119 0.0 0.0 0.00 0.00 0.00 25 1005.8
20260506224522 67 74 0.0 0.0 0.00 0.00 0.00 24 1005.8
20260506223020 67 107 0.9 0.0 0.00 0.00 0.00 25 1006.0
20260506221519 67 181 0.9 0.0 0.00 0.00 0.00 25 1006.1
20260506220018 67 64 0.9 0.0 0.00 0.00 0.00 24 1006.2
20260506214514 67 80 0.0 0.0 0.00 0.00 0.00 25 1006.6
20260506213010 66 34 0.9 0.0 0.00 0.00 0.00 25 1006.9
20260506211509 65 105 0.9 0.0 0.00 0.00 0.00 25 1007.1
20260506210007 66 101 0.0 0.0 0.00 0.00 0.00 24 1007.3
20260506204504 65 55 0.9 0.0 0.00 0.00 0.00 24 1007.3
20260506203001 64 157 0.9 0.0 0.00 0.00 0.00 26 1007.6
20260506201600 64 74 1.7 0.0 0.00 0.00 0.00 27 1007.8
20260506200057 64 125 0.9 0.0 0.00 0.00 0.00 26 1008.0
20260506194555 63 60 0.9 0.0 0.00 0.00 0.00 26 1008.0
20260506193052 63 128 0.9 0.0 0.00 0.00 0.00 27 1008.1
20260506191552 63 170 0.9 0.0 0.00 0.00 0.00 27 1008.4
20260506190048 62 72 1.7 0.0 0.00 0.00 0.00 28 1008.5
20260506184558 62 139 1.7 0.0 0.00 0.00 0.00 28 1008.9
20260506183042 61 111 1.7 0.0 0.00 0.00 0.00 28 1008.9
20260506181542 60 208 1.7 0.0 0.00 0.00 0.00 29 1009.0
20260506180040 59 213 1.7 0.0 0.00 0.00 0.00 30 1009.1
20260506174536 58 133 1.7 0.0 0.00 0.00 0.00 32 1009.3
20260506173030 57 150 1.7 0.0 0.00 0.00 0.00 33 1009.7
20260506171537 56 178 0.9 0.0 0.00 0.00 0.00 33 1009.9
20260506170024 55 77 0.9 0.0 0.00 0.00 0.00 35 1010.2
20260506164523 54 136 0.9 0.0 0.00 0.00 0.00 35 1010.5
20260506163017 53 97 1.7 0.0 0.00 0.00 0.00 36 1010.5
20260506161511 52 78 0.9 0.0 0.00 0.00 0.00 37 1010.6
20260506160006 51 138 0.9 0.0 0.00 0.00 0.00 37 1010.9
20260506154505 50 163 0.9 0.0 0.00 0.00 0.00 38 1011.1